Time,TemperatureF,DewpointF,PressureIn,WindDirection,WindDirectionDegrees,WindSpeedMPH,WindSpeedGustMPH,Humidity,HourlyPrecipIn,Conditions,Clouds,dailyrainin,SoftwareType,DateUTC
2013-08-28 00:04:00,67.6,67.3,29.07,South,180,0.0,2.0,99,0.04,,,0.00,meteohub,2013-08-28 10:04:00,
2013-08-28 00:09:00,67.6,67.3,29.06,South,180,0.0,2.0,99,0.00,,,0.00,meteohub,2013-08-28 10:09:00,
2013-08-28 00:14:00,67.5,67.1,29.06,South,180,0.0,2.0,99,0.00,,,0.00,meteohub,2013-08-28 10:14:00,
2013-08-28 00:19:00,67.3,66.9,29.05,South,180,0.0,1.0,99,0.00,,,0.00,meteohub,2013-08-28 10:19:00,
2013-08-28 00:24:00,67.3,66.9,29.06,South,180,0.0,0.0,99,0.00,,,0.00,meteohub,2013-08-28 10:24:00,
2013-08-28 00:29:00,67.3,66.9,29.06,South,180,0.0,0.0,99,0.00,,,0.00,meteohub,2013-08-28 10:29:00,
2013-08-28 00:34:00,67.1,66.7,29.06,South,180,0.0,0.0,99,0.00,,,0.00,meteohub,2013-08-28 10:34:00,
2013-08-28 00:39:00,67.1,66.7,29.05,South,180,0.0,0.0,99,0.00,,,0.00,meteohub,2013-08-28 10:39:00,
2013-08-28 00:44:00,67.1,66.7,29.06,South,180,0.0,0.0,99,0.00,,,0.00,meteohub,2013-08-28 10:44:00,
2013-08-28 00:49:00,67.1,66.7,29.06,South,180,0.0,0.0,99,0.00,,,0.00,meteohub,2013-08-28 10:49:00,
2013-08-28 00:54:00,67.1,66.7,29.05,South,180,0.0,0.0,99,0.00,,,0.00,meteohub,2013-08-28 10:54:00,
2013-08-28 00:59:00,66.9,66.6,29.05,South,180,0.0,0.0,99,0.00,,,0.00,meteohub,2013-08-28 10:59:00,
2013-08-28 01:04:00,66.9,66.6,29.05,South,180,0.0,0.0,99,0.00,,,0.00,meteohub,2013-08-28 11:04:00,
2013-08-28 01:09:00,66.7,66.4,29.05,South,180,0.0,0.0,99,0.00,,,0.00,meteohub,2013-08-28 11:09:00,
2013-08-28 01:14:00,66.7,66.4,29.05,South,180,0.0,0.0,99,0.00,,,0.00,meteohub,2013-08-28 11:14:00,
2013-08-28 01:19:00,66.6,66.2,29.05,South,180,0.0,0.0,99,0.00,,,0.00,meteohub,2013-08-28 11:19:00,
2013-08-28 01:24:00,66.6,66.2,29.04,South,180,0.0,0.0,99,0.00,,,0.00,meteohub,2013-08-28 11:24:00,
2013-08-28 01:29:00,66.4,66.0,29.05,South,180,0.0,0.0,99,0.00,,,0.00,meteohub,2013-08-28 11:29:00,
2013-08-28 01:34:00,66.2,65.8,29.04,South,180,0.0,0.0,99,0.00,,,0.00,meteohub,2013-08-28 11:34:00,
2013-08-28 01:39:00,66.2,65.8,29.05,South,180,0.0,0.0,99,0.00,,,0.00,meteohub,2013-08-28 11:39:00,
2013-08-28 01:44:00,66.0,65.7,29.04,South,180,0.0,0.0,99,0.00,,,0.00,meteohub,2013-08-28 11:44:00,
2013-08-28 01:49:00,66.0,65.7,29.04,South,180,0.0,1.0,99,0.00,,,0.00,meteohub,2013-08-28 11:49:00,
2013-08-28 01:54:00,66.0,65.7,29.04,South,180,0.0,1.0,99,0.00,,,0.00,meteohub,2013-08-28 11:54:00,
2013-08-28 01:59:00,66.2,65.8,29.04,South,180,0.0,1.0,99,0.00,,,0.00,meteohub,2013-08-28 11:59:00,
2013-08-28 02:04:00,66.2,65.8,29.04,South,180,0.0,1.0,99,0.00,,,0.00,meteohub,2013-08-28 12:04:00,
2013-08-28 02:09:00,66.0,65.7,29.04,South,180,0.0,1.0,99,0.00,,,0.00,meteohub,2013-08-28 12:09:00,
2013-08-28 02:14:00,66.0,65.7,29.03,South,180,0.0,1.0,99,0.00,,,0.00,meteohub,2013-08-28 12:14:00,
2013-08-28 02:19:00,65.8,65.5,29.03,South,180,0.0,0.0,99,0.00,,,0.00,meteohub,2013-08-28 12:19:00,
2013-08-28 02:24:00,65.8,65.5,29.03,South,180,0.0,0.0,99,0.00,,,0.00,meteohub,2013-08-28 12:24:00,
2013-08-28 02:29:00,65.7,65.3,29.03,South,180,0.0,1.0,99,0.00,,,0.00,meteohub,2013-08-28 12:29:00,
2013-08-28 02:34:00,65.7,65.3,29.02,South,180,0.0,1.0,99,0.00,,,0.00,meteohub,2013-08-28 12:34:00,
2013-08-28 02:39:00,65.5,65.1,29.02,South,180,1.0,1.0,99,0.00,,,0.00,meteohub,2013-08-28 12:39:00,
2013-08-28 02:44:00,65.5,65.1,29.02,South,180,0.0,1.0,99,0.00,,,0.00,meteohub,2013-08-28 12:44:00,
2013-08-28 02:49:00,65.5,65.1,29.02,South,180,0.0,2.0,99,0.00,,,0.00,meteohub,2013-08-28 12:49:00,
2013-08-28 02:54:00,65.5,65.1,29.02,South,180,0.0,2.0,99,0.00,,,0.00,meteohub,2013-08-28 12:54:00,
2013-08-28 02:59:00,65.5,65.1,29.02,South,180,0.0,2.0,99,0.00,,,0.00,meteohub,2013-08-28 12:59:00,
2013-08-28 03:04:00,65.3,64.9,29.02,South,180,0.0,2.0,99,0.00,,,0.00,meteohub,2013-08-28 13:04:00,
2013-08-28 03:09:00,65.1,64.8,29.02,South,180,0.0,1.0,99,0.00,,,0.00,meteohub,2013-08-28 13:09:00,
2013-08-28 03:14:00,65.1,64.8,29.02,South,180,0.0,1.0,99,0.00,,,0.00,meteohub,2013-08-28 13:14:00,
2013-08-28 03:19:00,64.9,64.6,29.02,South,180,0.0,1.0,99,0.00,,,0.00,meteohub,2013-08-28 13:19:00,
2013-08-28 03:24:00,64.8,64.4,29.02,South,180,0.0,1.0,99,0.00,,,0.00,meteohub,2013-08-28 13:24:00,
2013-08-28 03:29:00,64.8,64.4,29.02,South,180,0.0,1.0,99,0.00,,,0.00,meteohub,2013-08-28 13:29:00,
2013-08-28 03:35:00,64.6,64.2,29.02,South,180,0.0,1.0,99,0.00,,,0.00,meteohub,2013-08-28 13:35:00,
2013-08-28 03:40:00,64.4,64.0,29.02,South,180,0.0,1.0,99,0.00,,,0.00,meteohub,2013-08-28 13:40:00,
2013-08-28 03:45:00,64.4,64.0,29.01,South,180,0.0,0.0,99,0.00,,,0.00,meteohub,2013-08-28 13:45:00,
2013-08-28 03:50:00,64.6,64.2,29.01,South,180,0.0,1.0,99,0.00,,,0.00,meteohub,2013-08-28 13:50:00,
2013-08-28 03:55:00,64.6,64.2,29.01,South,180,0.0,2.0,99,0.00,,,0.00,meteohub,2013-08-28 13:55:00,
2013-08-28 04:00:00,64.6,64.2,29.01,South,180,1.0,2.0,99,0.00,,,0.00,meteohub,2013-08-28 14:00:00,
2013-08-28 04:05:00,64.6,64.2,29.02,South,180,1.0,2.0,99,0.00,,,0.00,meteohub,2013-08-28 14:05:00,
2013-08-28 04:10:00,64.8,64.4,29.01,South,180,2.0,2.0,99,0.00,,,0.00,meteohub,2013-08-28 14:10:00,
2013-08-28 04:15:00,64.8,64.4,29.02,South,180,2.0,2.0,99,0.00,,,0.00,meteohub,2013-08-28 14:15:00,
2013-08-28 04:20:00,64.8,64.4,29.02,South,180,1.0,2.0,99,0.00,,,0.00,meteohub,2013-08-28 14:20:00,
2013-08-28 04:25:00,64.6,64.2,29.02,South,180,0.0,2.0,99,0.00,,,0.00,meteohub,2013-08-28 14:25:00,
2013-08-28 04:30:00,64.6,64.2,29.02,South,180,0.0,2.0,99,0.00,,,0.00,meteohub,2013-08-28 14:30:00,
2013-08-28 04:35:00,64.2,63.9,29.02,South,180,0.0,2.0,99,0.00,,,0.00,meteohub,2013-08-28 14:35:00,
2013-08-28 04:40:00,64.0,63.7,29.02,South,180,0.0,2.0,99,0.00,,,0.00,meteohub,2013-08-28 14:40:00,
2013-08-28 04:45:00,64.0,63.7,29.02,South,180,1.0,0.0,99,0.00,,,0.00,meteohub,2013-08-28 14:45:00,
2013-08-28 04:50:00,64.0,63.7,29.02,South,180,1.0,1.0,99,0.00,,,0.00,meteohub,2013-08-28 14:50:00,
2013-08-28 04:55:00,64.0,63.7,29.02,South,180,0.0,2.0,99,0.00,,,0.00,meteohub,2013-08-28 14:55:00,
2013-08-28 05:00:00,64.2,63.9,29.02,South,180,0.0,2.0,99,0.00,,,0.00,meteohub,2013-08-28 15:00:00,
2013-08-28 05:05:00,64.2,63.9,29.03,South,180,0.0,2.0,99,0.00,,,0.00,meteohub,2013-08-28 15:05:00,
2013-08-28 05:10:00,64.2,63.9,29.02,South,180,1.0,2.0,99,0.00,,,0.00,meteohub,2013-08-28 15:10:00,
2013-08-28 05:15:00,64.2,63.9,29.03,South,180,1.0,2.0,99,0.00,,,0.00,meteohub,2013-08-28 15:15:00,
2013-08-28 05:20:00,64.0,63.7,29.03,South,180,2.0,2.0,99,0.00,,,0.00,meteohub,2013-08-28 15:20:00,
2013-08-28 05:25:00,64.2,63.9,29.02,South,180,2.0,2.0,99,0.00,,,0.00,meteohub,2013-08-28 15:25:00,
2013-08-28 05:30:00,64.0,63.7,29.03,South,180,2.0,2.0,99,0.00,,,0.00,meteohub,2013-08-28 15:30:00,
2013-08-28 05:35:00,64.0,63.7,29.03,South,180,1.0,2.0,99,0.00,,,0.00,meteohub,2013-08-28 15:35:00,
2013-08-28 05:40:00,64.0,63.7,29.02,South,180,2.0,2.0,99,0.00,,,0.00,meteohub,2013-08-28 15:40:00,
2013-08-28 05:45:00,63.9,63.5,29.03,South,180,0.0,2.0,99,0.00,,,0.00,meteohub,2013-08-28 15:45:00,
2013-08-28 05:50:00,63.5,63.1,29.02,South,180,0.0,2.0,99,0.00,,,0.00,meteohub,2013-08-28 15:50:00,
2013-08-28 05:55:00,63.3,63.0,29.03,South,180,2.0,2.0,99,0.00,,,0.00,meteohub,2013-08-28 15:55:00,
2013-08-28 06:00:00,63.1,62.8,29.03,South,180,1.0,2.0,99,0.00,,,0.00,meteohub,2013-08-28 16:00:00,
2013-08-28 06:05:00,63.1,62.8,29.03,South,180,0.0,2.0,99,0.00,,,0.00,meteohub,2013-08-28 16:05:00,
2013-08-28 06:10:00,62.8,62.4,29.03,South,180,0.0,2.0,99,0.00,,,0.00,meteohub,2013-08-28 16:10:00,
2013-08-28 06:15:00,62.6,62.2,29.03,South,180,0.0,2.0,99,0.00,,,0.00,meteohub,2013-08-28 16:15:00,
2013-08-28 06:20:00,62.6,62.2,29.03,South,180,0.0,1.0,99,0.00,,,0.00,meteohub,2013-08-28 16:20:00,
2013-08-28 06:25:00,62.6,62.2,29.03,South,180,1.0,2.0,99,0.00,,,0.00,meteohub,2013-08-28 16:25:00,
2013-08-28 06:30:00,62.6,62.2,29.03,South,180,1.0,2.0,99,0.00,,,0.00,meteohub,2013-08-28 16:30:00,
2013-08-28 06:35:00,63.1,62.8,29.03,South,180,2.0,2.0,99,0.00,,,0.00,meteohub,2013-08-28 16:35:00,
2013-08-28 06:40:00,63.5,63.1,29.04,South,180,2.0,2.0,99,0.00,,,0.00,meteohub,2013-08-28 16:40:00,
2013-08-28 06:45:00,63.9,63.5,29.03,South,180,0.0,3.0,99,0.00,,,0.00,meteohub,2013-08-28 16:45:00,
2013-08-28 06:50:00,64.6,64.2,29.03,South,180,2.0,3.0,99,0.00,,,0.00,meteohub,2013-08-28 16:50:00,
2013-08-28 06:55:00,64.8,64.4,29.03,South,180,1.0,4.0,99,0.00,,,0.00,meteohub,2013-08-28 16:55:00,
2013-08-28 07:00:00,64.8,64.4,29.03,South,180,0.0,4.0,99,0.00,,,0.00,meteohub,2013-08-28 17:00:00,
2013-08-28 07:05:00,64.9,64.6,29.04,South,180,1.0,4.0,99,0.00,,,0.00,meteohub,2013-08-28 17:05:00,
2013-08-28 07:10:00,65.5,65.1,29.03,South,180,0.0,2.0,99,0.00,,,0.00,meteohub,2013-08-28 17:10:00,
2013-08-28 07:15:00,67.1,66.7,29.04,South,180,0.0,2.0,99,0.00,,,0.00,meteohub,2013-08-28 17:15:00,
2013-08-28 07:21:00,70.0,69.6,29.03,South,180,0.0,2.0,99,0.00,,,0.00,meteohub,2013-08-28 17:21:00,
2013-08-28 07:26:00,71.8,71.4,29.04,South,180,0.0,2.0,99,0.00,,,0.00,meteohub,2013-08-28 17:26:00,
2013-08-28 07:31:00,73.0,72.7,29.03,South,180,0.0,0.0,99,0.00,,,0.00,meteohub,2013-08-28 17:31:00,
2013-08-28 07:36:00,74.8,72.3,29.03,South,180,0.0,1.0,92,0.00,,,0.00,meteohub,2013-08-28 17:36:00,
2013-08-28 07:41:00,76.1,72.9,29.03,South,180,0.0,1.0,90,0.00,,,0.00,meteohub,2013-08-28 17:41:00,
2013-08-28 07:46:00,77.5,73.8,29.04,South,180,0.0,1.0,88,0.00,,,0.00,meteohub,2013-08-28 17:46:00,
2013-08-28 07:51:00,78.4,72.9,29.03,South,180,0.0,0.0,83,0.00,,,0.00,meteohub,2013-08-28 17:51:00,
2013-08-28 07:56:00,79.5,73.9,29.03,South,180,0.0,0.0,83,0.00,,,0.00,meteohub,2013-08-28 17:56:00,
2013-08-28 08:01:00,81.1,75.2,29.04,South,180,0.0,0.0,82,0.00,,,0.00,meteohub,2013-08-28 18:01:00,
2013-08-28 08:06:00,82.2,73.9,29.03,South,180,0.0,0.0,76,0.00,,,0.00,meteohub,2013-08-28 18:06:00,
2013-08-28 08:11:00,83.3,74.5,29.04,South,180,0.0,0.0,75,0.00,,,0.00,meteohub,2013-08-28 18:11:00,
2013-08-28 08:16:00,84.2,74.7,29.03,South,180,0.0,0.0,73,0.00,,,0.00,meteohub,2013-08-28 18:16:00,
2013-08-28 08:21:00,84.7,73.4,29.03,South,180,0.0,1.0,69,0.00,,,0.00,meteohub,2013-08-28 18:21:00,
2013-08-28 08:26:00,83.1,68.7,29.03,South,180,2.0,2.0,62,0.00,,,0.00,meteohub,2013-08-28 18:26:00,
2013-08-28 08:31:00,81.7,68.4,29.03,South,180,2.0,2.0,64,0.00,,,0.00,meteohub,2013-08-28 18:31:00,
2013-08-28 08:36:00,80.4,68.0,29.03,South,180,2.0,2.0,66,0.00,,,0.00,meteohub,2013-08-28 18:36:00,
2013-08-28 08:41:00,79.5,67.6,29.03,South,180,2.0,4.0,67,0.00,,,0.00,meteohub,2013-08-28 18:41:00,
2013-08-28 08:46:00,79.2,67.6,29.03,South,180,2.0,4.0,68,0.00,,,0.00,meteohub,2013-08-28 18:46:00,
2013-08-28 08:51:00,79.2,68.9,29.03,South,180,0.0,4.0,71,0.00,,,0.00,meteohub,2013-08-28 18:51:00,
2013-08-28 08:56:00,79.7,67.8,29.03,South,180,3.0,3.0,67,0.00,,,0.00,meteohub,2013-08-28 18:56:00,
2013-08-28 09:01:00,79.9,68.4,29.03,South,180,2.0,3.0,68,0.00,,,0.00,meteohub,2013-08-28 19:01:00,
2013-08-28 09:06:00,80.1,68.2,29.03,South,180,2.0,3.0,67,0.00,,,0.00,meteohub,2013-08-28 19:06:00,
2013-08-28 09:11:00,80.4,68.0,29.03,South,180,3.0,3.0,66,0.00,,,0.00,meteohub,2013-08-28 19:11:00,
2013-08-28 09:16:00,81.0,68.9,29.02,South,180,0.0,3.0,67,0.00,,,0.00,meteohub,2013-08-28 19:16:00,
2013-08-28 09:21:00,82.6,69.6,29.02,South,180,3.0,3.0,65,0.00,,,0.00,meteohub,2013-08-28 19:21:00,
2013-08-28 09:26:00,81.7,68.7,29.03,South,180,2.0,4.0,65,0.00,,,0.00,meteohub,2013-08-28 19:26:00,
2013-08-28 09:31:00,81.7,70.2,29.02,South,180,3.0,4.0,68,0.00,,,0.00,meteohub,2013-08-28 19:31:00,
2013-08-28 09:36:00,81.3,69.3,29.02,South,180,3.0,4.0,67,0.00,,,0.00,meteohub,2013-08-28 19:36:00,
2013-08-28 09:41:00,81.5,71.2,29.02,South,180,1.0,4.0,71,0.00,,,0.00,meteohub,2013-08-28 19:41:00,
2013-08-28 09:46:00,82.0,71.8,29.02,South,180,2.0,4.0,71,0.00,,,0.00,meteohub,2013-08-28 19:46:00,
2013-08-28 09:51:00,81.5,70.3,29.01,South,180,3.0,4.0,69,0.00,,,0.00,meteohub,2013-08-28 19:51:00,
2013-08-28 09:56:00,80.6,70.0,29.01,South,180,4.0,7.0,70,0.00,,,0.00,meteohub,2013-08-28 19:56:00,
2013-08-28 10:01:00,80.1,70.2,29.00,SW,225,2.0,7.0,72,0.00,,,0.00,meteohub,2013-08-28 20:01:00,
2013-08-28 10:06:00,80.6,71.1,29.00,SW,225,2.0,7.0,73,0.00,,,0.00,meteohub,2013-08-28 20:06:00,
2013-08-28 10:11:00,81.5,72.3,29.00,South,180,2.0,6.0,74,0.00,,,0.00,meteohub,2013-08-28 20:11:00,
2013-08-28 10:16:00,81.7,71.4,29.00,SW,225,3.0,4.0,71,0.00,,,0.00,meteohub,2013-08-28 20:16:00,
2013-08-28 10:21:00,81.1,71.2,29.00,SW,225,2.0,4.0,72,0.00,,,0.00,meteohub,2013-08-28 20:21:00,
2013-08-28 10:26:00,80.8,70.5,28.99,SW,225,2.0,4.0,71,0.00,,,0.00,meteohub,2013-08-28 20:26:00,
2013-08-28 10:31:00,81.3,71.1,29.00,SW,225,4.0,4.0,71,0.00,,,0.00,meteohub,2013-08-28 20:31:00,
2013-08-28 10:36:00,81.0,69.8,29.00,SW,225,3.0,4.0,69,0.00,,,0.00,meteohub,2013-08-28 20:36:00,
2013-08-28 10:41:00,81.5,71.2,28.99,SW,225,2.0,4.0,71,0.00,,,0.00,meteohub,2013-08-28 20:41:00,
2013-08-28 10:46:00,81.1,70.0,28.99,SW,225,4.0,6.0,69,0.00,,,0.00,meteohub,2013-08-28 20:46:00,
2013-08-28 10:51:00,81.3,70.5,28.99,SW,225,3.0,6.0,70,0.00,,,0.00,meteohub,2013-08-28 20:51:00,
2013-08-28 10:56:00,81.3,70.2,28.99,SW,225,2.0,6.0,69,0.00,,,0.00,meteohub,2013-08-28 20:56:00,
2013-08-28 11:01:00,81.7,70.5,28.99,SW,225,6.0,6.0,69,0.00,,,0.00,meteohub,2013-08-28 21:01:00,
2013-08-28 11:06:00,80.8,70.2,28.99,SW,225,5.0,7.0,70,0.00,,,0.00,meteohub,2013-08-28 21:06:00,
2013-08-28 11:11:00,80.4,70.5,28.98,West,270,4.0,7.0,72,0.00,,,0.00,meteohub,2013-08-28 21:11:00,
2013-08-28 11:16:00,80.6,70.7,28.98,West,270,2.0,7.0,72,0.00,,,0.00,meteohub,2013-08-28 21:16:00,
2013-08-28 11:21:00,81.1,70.0,28.98,West,270,6.0,7.0,69,0.00,,,0.00,meteohub,2013-08-28 21:21:00,
2013-08-28 11:26:00,81.7,70.5,28.98,West,270,5.0,6.0,69,0.00,,,0.00,meteohub,2013-08-28 21:26:00,
2013-08-28 11:31:00,81.7,71.4,28.98,West,270,4.0,6.0,71,0.00,,,0.00,meteohub,2013-08-28 21:31:00,
2013-08-28 11:36:00,81.9,71.1,28.97,West,270,4.0,6.0,70,0.00,,,0.00,meteohub,2013-08-28 21:36:00,
2013-08-28 11:41:00,81.9,71.1,28.98,West,270,2.0,6.0,70,0.00,,,0.00,meteohub,2013-08-28 21:41:00,
2013-08-28 11:46:00,81.7,70.5,28.98,West,270,2.0,7.0,69,0.00,,,0.00,meteohub,2013-08-28 21:46:00,
2013-08-28 11:51:00,81.1,69.1,28.97,West,270,7.0,7.0,67,0.00,,,0.00,meteohub,2013-08-28 21:51:00,
2013-08-28 11:56:00,81.0,70.2,28.98,NW,315,2.0,7.0,70,0.00,,,0.00,meteohub,2013-08-28 21:56:00,
2013-08-28 12:01:00,81.0,70.2,28.97,West,270,3.0,8.0,70,0.00,,,0.00,meteohub,2013-08-28 22:01:00,
2013-08-28 12:06:00,80.8,70.5,28.97,West,270,4.0,8.0,71,0.00,,,0.00,meteohub,2013-08-28 22:06:00,
2013-08-28 12:11:00,81.1,70.3,28.96,West,270,4.0,8.0,70,0.00,,,0.00,meteohub,2013-08-28 22:11:00,
2013-08-28 12:16:00,81.1,70.3,28.97,NW,315,3.0,8.0,70,0.00,,,0.00,meteohub,2013-08-28 22:16:00,
2013-08-28 12:21:00,82.0,71.2,28.97,West,270,1.0,7.0,70,0.00,,,0.00,meteohub,2013-08-28 22:21:00,
2013-08-28 12:26:00,81.1,69.6,28.97,West,270,4.0,7.0,68,0.00,,,0.00,meteohub,2013-08-28 22:26:00,
2013-08-28 12:31:00,81.9,70.7,28.97,West,270,4.0,6.0,69,0.00,,,0.00,meteohub,2013-08-28 22:31:00,
2013-08-28 12:36:00,81.5,70.7,28.96,West,270,3.0,6.0,70,0.00,,,0.00,meteohub,2013-08-28 22:36:00,
2013-08-28 12:41:00,81.5,70.7,28.95,West,270,2.0,7.0,70,0.00,,,0.00,meteohub,2013-08-28 22:41:00,
2013-08-28 12:46:00,81.5,70.7,28.95,West,270,4.0,7.0,70,0.00,,,0.00,meteohub,2013-08-28 22:46:00,
2013-08-28 12:51:00,81.1,70.0,28.95,West,270,3.0,7.0,69,0.00,,,0.00,meteohub,2013-08-28 22:51:00,
2013-08-28 12:56:00,82.0,71.2,28.95,West,270,5.0,5.0,70,0.00,,,0.00,meteohub,2013-08-28 22:56:00,
2013-08-28 13:01:00,81.7,70.9,28.95,West,270,3.0,6.0,70,0.00,,,0.00,meteohub,2013-08-28 23:01:00,
2013-08-28 13:07:00,82.4,71.6,28.95,West,270,3.0,7.0,70,0.00,,,0.00,meteohub,2013-08-28 23:07:00,
2013-08-28 13:12:00,82.2,71.1,28.95,NW,315,4.0,7.0,69,0.00,,,0.00,meteohub,2013-08-28 23:12:00,
2013-08-28 13:17:00,81.7,70.9,28.95,West,270,4.0,7.0,70,0.00,,,0.00,meteohub,2013-08-28 23:17:00,
2013-08-28 13:22:00,80.6,69.4,28.94,West,270,4.0,8.0,69,0.00,,,0.00,meteohub,2013-08-28 23:22:00,
2013-08-28 13:27:00,81.9,71.1,28.94,SW,225,2.0,8.0,70,0.00,,,0.00,meteohub,2013-08-28 23:27:00,
2013-08-28 13:32:00,82.0,70.3,28.94,NW,315,3.0,4.0,68,0.00,,,0.00,meteohub,2013-08-28 23:32:00,
2013-08-28 13:37:00,82.2,71.1,28.94,East,90,2.0,4.0,69,0.00,,,0.00,meteohub,2013-08-28 23:37:00,
2013-08-28 13:42:00,82.8,70.7,28.94,SE,135,4.0,4.0,67,0.00,,,0.00,meteohub,2013-08-28 23:42:00,
2013-08-28 13:47:00,82.0,70.9,28.94,West,270,3.0,4.0,69,0.00,,,0.00,meteohub,2013-08-28 23:47:00,
2013-08-28 13:52:00,81.9,71.1,28.93,West,270,0.0,4.0,70,0.00,,,0.00,meteohub,2013-08-28 23:52:00,
2013-08-28 13:57:00,83.3,73.4,28.93,SW,225,4.0,4.0,72,0.00,,,0.00,meteohub,2013-08-28 23:57:00,
2013-08-28 14:02:00,83.5,73.0,28.93,SW,225,4.0,4.0,71,0.00,,,0.00,meteohub,2013-08-29 00:02:00,
2013-08-28 14:07:00,81.9,71.1,28.92,West,270,4.0,6.0,70,0.00,,,0.00,meteohub,2013-08-29 00:07:00,
2013-08-28 14:12:00,81.7,71.8,28.93,West,270,3.0,7.0,72,0.00,,,0.00,meteohub,2013-08-29 00:12:00,
2013-08-28 14:17:00,81.7,71.4,28.92,NW,315,3.0,7.0,71,0.00,,,0.00,meteohub,2013-08-29 00:17:00,
2013-08-28 14:22:00,81.1,71.2,28.92,West,270,4.0,8.0,72,0.00,,,0.00,meteohub,2013-08-29 00:22:00,
2013-08-28 14:27:00,80.4,70.9,28.92,West,270,5.0,8.0,73,0.00,,,0.00,meteohub,2013-08-29 00:27:00,
2013-08-28 14:32:00,80.2,71.2,28.92,West,270,2.0,8.0,74,0.00,,,0.00,meteohub,2013-08-29 00:32:00,
2013-08-28 14:37:00,79.9,71.2,28.92,NW,315,4.0,8.0,75,0.00,,,0.00,meteohub,2013-08-29 00:37:00,
2013-08-28 14:42:00,79.3,71.4,28.92,West,270,3.0,5.0,77,0.00,,,0.00,meteohub,2013-08-29 00:42:00,
2013-08-28 14:47:00,78.8,71.1,28.92,West,270,3.0,4.0,77,0.00,,,0.00,meteohub,2013-08-29 00:47:00,
2013-08-28 14:52:00,77.9,70.5,28.92,NW,315,2.0,4.0,78,0.00,,,0.00,meteohub,2013-08-29 00:52:00,
2013-08-28 14:57:00,77.4,71.4,28.92,NW,315,3.0,4.0,82,0.00,,,0.00,meteohub,2013-08-29 00:57:00,
2013-08-28 15:02:00,76.5,71.6,28.92,West,270,2.0,4.0,85,0.00,,,0.00,meteohub,2013-08-29 01:02:00,
2013-08-28 15:07:00,75.7,72.7,28.92,NW,315,3.0,4.0,90,0.00,,,0.00,meteohub,2013-08-29 01:07:00,
2013-08-28 15:12:00,75.4,72.5,28.92,NW,315,2.0,4.0,91,0.00,,,0.00,meteohub,2013-08-29 01:12:00,
2013-08-28 15:17:00,75.2,73.6,28.92,NW,315,2.0,4.0,95,0.00,,,0.00,meteohub,2013-08-29 01:17:00,
2013-08-28 15:22:00,75.2,73.9,28.92,NW,315,0.0,3.0,96,0.00,,,0.00,meteohub,2013-08-29 01:22:00,
2013-08-28 15:27:00,75.0,73.4,28.91,NW,315,1.0,2.0,95,0.00,,,0.00,meteohub,2013-08-29 01:27:00,
2013-08-28 15:32:00,74.8,73.2,28.92,West,270,1.0,2.0,95,0.00,,,0.00,meteohub,2013-08-29 01:32:00,
2013-08-28 15:37:00,74.8,73.2,28.92,West,270,1.0,3.0,95,0.00,,,0.00,meteohub,2013-08-29 01:37:00,
2013-08-28 15:42:00,75.0,73.4,28.92,NW,315,2.0,3.0,95,0.00,,,0.00,meteohub,2013-08-29 01:42:00,
2013-08-28 15:47:00,75.0,73.8,28.92,NW,315,2.0,2.0,96,0.00,,,0.00,meteohub,2013-08-29 01:47:00,
2013-08-28 15:52:00,74.8,73.0,28.92,West,270,2.0,2.0,94,0.00,,,0.00,meteohub,2013-08-29 01:52:00,
2013-08-28 15:57:00,74.7,72.5,28.92,West,270,1.0,2.0,93,0.00,,,0.00,meteohub,2013-08-29 01:57:00,
2013-08-28 16:02:00,74.7,72.5,28.92,West,270,2.0,2.0,93,0.00,,,0.00,meteohub,2013-08-29 02:02:00,
2013-08-28 16:07:00,74.7,72.5,28.92,West,270,0.0,2.0,93,0.00,,,0.00,meteohub,2013-08-29 02:07:00,
2013-08-28 16:12:00,74.5,72.0,28.92,West,270,0.0,2.0,92,0.00,,,0.00,meteohub,2013-08-29 02:12:00,
2013-08-28 16:17:00,74.5,72.3,28.93,West,270,0.0,2.0,93,0.00,,,0.00,meteohub,2013-08-29 02:17:00,
2013-08-28 16:22:00,74.3,72.1,28.92,West,270,1.0,2.0,93,0.00,,,0.00,meteohub,2013-08-29 02:22:00,
2013-08-28 16:27:00,73.9,71.8,28.92,West,270,1.0,2.0,93,0.00,,,0.00,meteohub,2013-08-29 02:27:00,
2013-08-28 16:32:00,73.2,71.1,28.93,West,270,2.0,2.0,93,0.01,,,0.01,meteohub,2013-08-29 02:32:00,
2013-08-28 16:37:00,72.5,71.1,28.93,West,270,2.0,2.0,95,0.01,,,0.01,meteohub,2013-08-29 02:37:00,
2013-08-28 16:42:00,72.3,70.9,28.93,West,270,0.0,2.0,95,0.01,,,0.01,meteohub,2013-08-29 02:42:00,
2013-08-28 16:47:00,72.0,70.7,28.93,West,270,0.0,2.0,96,0.01,,,0.01,meteohub,2013-08-29 02:47:00,
2013-08-28 16:52:00,71.8,70.9,28.93,West,270,0.0,2.0,97,0.01,,,0.01,meteohub,2013-08-29 02:52:00,
2013-08-28 16:57:00,71.4,70.9,28.93,West,270,0.0,2.0,98,0.01,,,0.01,meteohub,2013-08-29 02:57:00,
2013-08-28 17:02:00,71.1,70.7,28.93,NW,315,2.0,2.0,99,0.01,,,0.01,meteohub,2013-08-29 03:02:00,
2013-08-28 17:07:00,70.9,70.5,28.94,East,90,2.0,4.0,99,0.02,,,0.01,meteohub,2013-08-29 03:07:00,
2013-08-28 17:12:00,70.3,70.0,28.93,East,90,0.0,4.0,99,0.02,,,0.02,meteohub,2013-08-29 03:12:00,
2013-08-28 17:17:00,70.2,69.8,28.93,East,90,2.0,4.0,99,0.02,,,0.02,meteohub,2013-08-29 03:17:00,
2013-08-28 17:22:00,69.8,69.4,28.93,East,90,4.0,5.0,99,0.02,,,0.02,meteohub,2013-08-29 03:22:00,
2013-08-28 17:27:00,69.6,69.3,28.93,East,90,4.0,5.0,99,0.01,,,0.02,meteohub,2013-08-29 03:27:00,
2013-08-28 17:32:00,69.6,69.3,28.94,East,90,3.0,4.0,99,0.01,,,0.02,meteohub,2013-08-29 03:32:00,
2013-08-28 17:37:00,69.6,69.3,28.94,East,90,2.0,4.0,99,0.01,,,0.02,meteohub,2013-08-29 03:37:00,
2013-08-28 17:42:00,69.6,69.3,28.94,East,90,4.0,4.0,99,0.01,,,0.02,meteohub,2013-08-29 03:42:00,
2013-08-28 17:47:00,69.6,69.3,28.94,East,90,2.0,4.0,99,0.01,,,0.02,meteohub,2013-08-29 03:47:00,
2013-08-28 17:52:00,69.6,69.3,28.94,East,90,2.0,4.0,99,0.01,,,0.02,meteohub,2013-08-29 03:52:00,
2013-08-28 17:57:00,69.8,69.4,28.94,East,90,2.0,4.0,99,0.01,,,0.02,meteohub,2013-08-29 03:57:00,
2013-08-28 18:01:00,69.8,69.4,28.95,East,90,2.0,4.0,99,0.01,,,0.02,meteohub,2013-08-29 04:01:00,
2013-08-28 18:06:00,70.0,69.6,28.95,East,90,3.0,4.0,99,0.00,,,0.02,meteohub,2013-08-29 04:06:00,
2013-08-28 18:12:00,70.2,69.8,28.95,East,90,0.0,4.0,99,0.00,,,0.02,meteohub,2013-08-29 04:12:00,
2013-08-28 18:17:00,70.5,70.2,28.95,East,90,2.0,3.0,99,0.00,,,0.02,meteohub,2013-08-29 04:17:00,
2013-08-28 18:22:00,71.8,71.4,28.95,East,90,2.0,3.0,99,0.00,,,0.02,meteohub,2013-08-29 04:22:00,
2013-08-28 18:27:00,72.3,72.0,28.95,East,90,2.0,3.0,99,0.00,,,0.02,meteohub,2013-08-29 04:27:00,
2013-08-28 18:32:00,72.1,71.8,28.95,East,90,2.0,4.0,99,0.00,,,0.02,meteohub,2013-08-29 04:32:00,
2013-08-28 18:37:00,71.6,71.2,28.95,East,90,2.0,4.0,99,0.00,,,0.02,meteohub,2013-08-29 04:37:00,
2013-08-28 18:42:00,70.9,70.5,28.95,East,90,2.0,4.0,99,0.00,,,0.02,meteohub,2013-08-29 04:42:00,
2013-08-28 18:47:00,70.7,70.3,28.95,East,90,2.0,2.0,99,0.00,,,0.02,meteohub,2013-08-29 04:47:00,
2013-08-28 18:52:00,70.3,70.0,28.95,East,90,1.0,3.0,99,0.00,,,0.02,meteohub,2013-08-29 04:52:00,
2013-08-28 18:57:00,70.0,69.6,28.95,East,90,0.0,3.0,99,0.00,,,0.02,meteohub,2013-08-29 04:57:00,
2013-08-28 19:02:00,69.8,69.4,28.95,East,90,2.0,2.0,99,0.00,,,0.02,meteohub,2013-08-29 05:02:00,
2013-08-28 19:07:00,69.6,69.3,28.95,East,90,0.0,2.0,99,0.00,,,0.02,meteohub,2013-08-29 05:07:00,
2013-08-28 19:12:00,69.4,69.1,28.95,East,90,2.0,2.0,99,0.00,,,0.02,meteohub,2013-08-29 05:12:00,
2013-08-28 19:17:00,69.4,69.1,28.95,East,90,1.0,2.0,99,0.00,,,0.02,meteohub,2013-08-29 05:17:00,
2013-08-28 19:22:00,69.3,68.9,28.95,East,90,2.0,2.0,99,0.00,,,0.02,meteohub,2013-08-29 05:22:00,
2013-08-28 19:27:00,69.3,68.9,28.95,East,90,1.0,2.0,99,0.00,,,0.02,meteohub,2013-08-29 05:27:00,
2013-08-28 19:32:00,69.3,68.9,28.95,East,90,2.0,2.0,99,0.00,,,0.02,meteohub,2013-08-29 05:32:00,
2013-08-28 19:37:00,69.3,68.9,28.95,East,90,2.0,2.0,99,0.00,,,0.02,meteohub,2013-08-29 05:37:00,
2013-08-28 19:42:00,69.3,68.9,28.96,East,90,1.0,2.0,99,0.00,,,0.02,meteohub,2013-08-29 05:42:00,
2013-08-28 19:47:00,69.3,68.9,28.96,East,90,1.0,2.0,99,0.00,,,0.02,meteohub,2013-08-29 05:47:00,
2013-08-28 19:52:00,69.3,68.9,28.97,East,90,0.0,2.0,99,0.00,,,0.02,meteohub,2013-08-29 05:52:00,
2013-08-28 19:57:00,69.3,68.9,28.97,East,90,0.0,2.0,99,0.00,,,0.02,meteohub,2013-08-29 05:57:00,
2013-08-28 20:02:00,69.3,68.9,28.97,East,90,1.0,2.0,99,0.00,,,0.02,meteohub,2013-08-29 06:02:00,
2013-08-28 20:07:00,69.3,68.9,28.97,East,90,0.0,2.0,99,0.00,,,0.02,meteohub,2013-08-29 06:07:00,
2013-08-28 20:12:00,69.1,68.7,28.97,East,90,0.0,2.0,99,0.00,,,0.02,meteohub,2013-08-29 06:12:00,
2013-08-28 20:17:00,69.1,68.7,28.97,East,90,1.0,2.0,99,0.00,,,0.02,meteohub,2013-08-29 06:17:00,
2013-08-28 20:22:00,69.1,68.7,28.97,East,90,0.0,2.0,99,0.00,,,0.02,meteohub,2013-08-29 06:22:00,
2013-08-28 20:27:00,68.9,68.5,28.97,East,90,0.0,2.0,99,0.00,,,0.02,meteohub,2013-08-29 06:27:00,
2013-08-28 20:32:00,68.9,68.5,28.97,East,90,0.0,2.0,99,0.00,,,0.02,meteohub,2013-08-29 06:32:00,
2013-08-28 20:37:00,68.9,68.5,28.98,East,90,1.0,2.0,99,0.00,,,0.02,meteohub,2013-08-29 06:37:00,
2013-08-28 20:42:00,68.9,68.5,28.98,East,90,2.0,2.0,99,0.00,,,0.02,meteohub,2013-08-29 06:42:00,
2013-08-28 20:47:00,68.9,68.5,28.98,East,90,1.0,2.0,99,0.00,,,0.02,meteohub,2013-08-29 06:47:00,
2013-08-28 20:52:00,68.7,68.4,28.98,East,90,1.0,2.0,99,0.00,,,0.02,meteohub,2013-08-29 06:52:00,
2013-08-28 20:57:00,68.7,68.4,28.98,East,90,2.0,2.0,99,0.00,,,0.02,meteohub,2013-08-29 06:57:00,
2013-08-28 21:02:00,68.7,68.4,28.98,East,90,1.0,2.0,99,0.00,,,0.02,meteohub,2013-08-29 07:02:00,
2013-08-28 21:07:00,68.9,68.5,28.98,East,90,1.0,2.0,99,0.00,,,0.02,meteohub,2013-08-29 07:07:00,
2013-08-28 21:12:00,69.1,68.7,28.98,East,90,2.0,2.0,99,0.00,,,0.02,meteohub,2013-08-29 07:12:00,
2013-08-28 21:17:00,69.1,68.7,28.98,East,90,2.0,2.0,99,0.00,,,0.02,meteohub,2013-08-29 07:17:00,
2013-08-28 21:22:00,69.3,68.9,28.98,East,90,2.0,2.0,99,0.00,,,0.02,meteohub,2013-08-29 07:22:00,
2013-08-28 21:27:00,69.3,68.9,28.99,East,90,1.0,2.0,99,0.00,,,0.02,meteohub,2013-08-29 07:27:00,
2013-08-28 21:32:00,69.3,68.9,28.99,East,90,0.0,2.0,99,0.00,,,0.02,meteohub,2013-08-29 07:32:00,
2013-08-28 21:37:00,69.3,68.9,28.98,East,90,0.0,2.0,99,0.00,,,0.02,meteohub,2013-08-29 07:37:00,
2013-08-28 21:42:00,69.3,68.9,28.98,East,90,0.0,2.0,99,0.00,,,0.02,meteohub,2013-08-29 07:42:00,
2013-08-28 21:48:00,69.3,68.9,28.99,East,90,0.0,0.0,99,0.00,,,0.02,meteohub,2013-08-29 07:48:00,
2013-08-28 21:53:00,69.3,68.9,28.99,East,90,0.0,2.0,99,0.00,,,0.02,meteohub,2013-08-29 07:53:00,
2013-08-28 21:58:00,69.3,68.9,28.99,East,90,0.0,2.0,99,0.00,,,0.02,meteohub,2013-08-29 07:58:00,
2013-08-28 22:03:00,69.3,68.9,28.99,East,90,0.0,2.0,99,0.00,,,0.02,meteohub,2013-08-29 08:03:00,
2013-08-28 22:08:00,69.1,68.7,28.99,East,90,0.0,1.0,99,0.00,,,0.02,meteohub,2013-08-29 08:08:00,
2013-08-28 22:13:00,69.1,68.7,28.99,East,90,0.0,0.0,99,0.00,,,0.02,meteohub,2013-08-29 08:13:00,
2013-08-28 22:18:00,69.1,68.7,28.99,East,90,0.0,0.0,99,0.00,,,0.02,meteohub,2013-08-29 08:18:00,
2013-08-28 22:23:00,69.1,68.7,28.99,East,90,0.0,0.0,99,0.00,,,0.02,meteohub,2013-08-29 08:23:00,
2013-08-28 22:28:00,69.1,68.7,28.99,East,90,0.0,0.0,99,0.00,,,0.02,meteohub,2013-08-29 08:28:00,
2013-08-28 22:33:00,68.9,68.5,28.99,East,90,0.0,1.0,99,0.00,,,0.02,meteohub,2013-08-29 08:33:00,
2013-08-28 22:38:00,68.9,68.5,28.99,East,90,0.0,1.0,99,0.00,,,0.02,meteohub,2013-08-29 08:38:00,
2013-08-28 22:43:00,68.9,68.5,28.99,East,90,0.0,0.0,99,0.00,,,0.02,meteohub,2013-08-29 08:43:00,
2013-08-28 22:48:00,68.9,68.5,28.99,East,90,0.0,0.0,99,0.00,,,0.02,meteohub,2013-08-29 08:48:00,
2013-08-28 22:53:00,68.7,68.4,28.99,East,90,0.0,0.0,99,0.00,,,0.02,meteohub,2013-08-29 08:53:00,
2013-08-28 22:58:00,68.5,68.2,28.99,East,90,0.0,0.0,99,0.00,,,0.02,meteohub,2013-08-29 08:58:00,
2013-08-28 23:03:00,68.5,68.2,28.99,East,90,0.0,0.0,99,0.00,,,0.02,meteohub,2013-08-29 09:03:00,
2013-08-28 23:08:00,68.4,68.0,28.99,East,90,0.0,0.0,99,0.00,,,0.02,meteohub,2013-08-29 09:08:00,
2013-08-28 23:13:00,68.4,68.0,28.99,East,90,0.0,0.0,99,0.00,,,0.02,meteohub,2013-08-29 09:13:00,
2013-08-28 23:18:00,68.2,67.8,28.99,East,90,0.0,0.0,99,0.00,,,0.02,meteohub,2013-08-29 09:18:00,
2013-08-28 23:23:00,68.0,67.6,28.99,East,90,0.0,0.0,99,0.00,,,0.02,meteohub,2013-08-29 09:23:00,
2013-08-28 23:28:00,67.8,67.5,28.99,East,90,0.0,0.0,99,0.00,,,0.02,meteohub,2013-08-29 09:28:00,
2013-08-28 23:33:00,67.6,67.3,28.99,East,90,0.0,0.0,99,0.00,,,0.02,meteohub,2013-08-29 09:33:00,
2013-08-28 23:38:00,67.5,67.1,28.99,East,90,0.0,0.0,99,0.00,,,0.02,meteohub,2013-08-29 09:38:00,
2013-08-28 23:43:00,67.3,66.9,28.98,East,90,0.0,0.0,99,0.00,,,0.02,meteohub,2013-08-29 09:43:00,
2013-08-28 23:48:00,67.3,66.9,28.98,East,90,0.0,0.0,99,0.00,,,0.02,meteohub,2013-08-29 09:48:00,
2013-08-28 23:53:00,67.5,67.1,28.98,East,90,0.0,0.0,99,0.00,,,0.02,meteohub,2013-08-29 09:53:00,
2013-08-28 23:58:00,67.6,67.3,28.98,East,90,0.0,0.0,99,0.00,,,0.02,meteohub,2013-08-29 09:58:00,